User: anonymous
Location: Santa Barbara
(34.4500°N, 119.7700°W)
Time: 13:34:52
(UTC-07:00)
Language:

Cosmos 1626 Rocket - Orbit

View from above orbital plane
View from above orbital plane
View from above satellite
View from above satellite

Ground track
Ground track

The orbit data is extracted from the following two-line orbital elements,

1 15495U 85009B   14206.09981026  .00000130  00000-0  12984-4 0  8344
2 15495 082.5246 098.2884 0019711 215.8142 144.1753 14.83245110593083
Epoch (UTC): 25 July 2014 02:23:43
Eccentricity: 0.0019711
inclination: 82.5246°
perigee height: 605 km
apogee height: 633 km
right ascension of ascending node: 98.2884°
argument of perigee: 215.8142°
revolutions per day: 14.83245110
mean anomaly at epoch: 144.1753°
orbit number at epoch: 59308

The dashed part of the orbit path shows where the satellite is in the earth's shadow,  

DLR